N8DH Weather Reports


Display with metric or nautical units.
time (UTC)temp
F
wind
direction
speed
MPH
gust
MPH
rain 1hr
in
rain 24hr
in
rain mn
in
humidity
%
barometer
mb
20260901021551 73 186 0.0 3.0 0.00 0.01 0.00 89 1008.5
20260901020110 73 167 1.0 2.0 0.00 0.01 0.00 90 1008.7
20260901014524 73 41 0.0 2.0 0.00 0.01 0.00 89 1009.0
20260901013106 74 41 0.0 2.0 0.00 0.01 0.00 88 1009.0
20260901011643 75 19 0.0 2.0 0.00 0.01 0.00 87 1008.7
20260901010153 75 162 0.0 5.0 0.00 0.01 0.00 87 1008.2
20260901004523 75 140 2.0 5.0 0.00 0.01 0.00 86 1007.9
20260901003108 75 165 1.0 5.0 0.00 0.01 0.00 85 1008.2
20260901001532 77 148 2.0 4.0 0.00 0.01 0.00 81 1009.1
20260901000109 78 213 0.0 3.0 0.00 0.01 0.00 76 1009.6
20260831234637 79 231 0.0 7.0 0.00 0.01 0.00 73 1009.7
20260831233037 80 259 1.0 5.0 0.00 0.01 0.00 76 1009.9
20260831231612 81 246 1.0 3.0 0.00 0.01 0.00 74 1009.9
20260831230026 81 229 1.0 6.0 0.00 0.01 0.00 73 1010.0
20260831224550 82 190 2.0 6.0 0.00 0.01 0.00 74 1010.1
20260831223139 82 225 1.0 4.0 0.00 0.01 0.00 73 1010.0
20260831221637 83 238 0.0 2.0 0.00 0.01 0.00 75 1009.9
20260831220011 83 251 0.0 2.0 0.00 0.01 0.00 74 1009.8
20260831214620 83 217 1.0 3.0 0.00 0.01 0.00 72 1009.5
20260831213038 83 161 0.0 2.0 0.00 0.01 0.00 73 1009.4
20260831211615 83 213 2.0 4.0 0.00 0.01 0.00 72 1009.6
20260831210144 84 150 1.0 3.0 0.00 0.01 0.00 71 1009.7
20260831204537 84 225 0.0 2.0 0.00 0.01 0.00 71 1009.9
20260831203102 83 207 1.0 3.0 0.00 0.01 0.00 71 1009.7
20260831201642 83 271 0.0 3.0 0.00 0.01 0.00 70 1009.8
20260831200108 82 225 0.0 2.0 0.00 0.01 0.00 73 1009.9
20260831194510 82 238 1.0 3.0 0.00 0.01 0.00 72 1009.7
20260831193057 82 220 1.0 3.0 0.00 0.01 0.00 72 1009.7
20260831191508 83 238 4.0 7.0 0.00 0.01 0.00 63 1010.0
20260831190050 84 194 0.0 7.0 0.00 0.01 0.00 63 1010.3
20260831184605 85 225 3.0 6.0 0.00 0.02 0.00 63 1010.3
20260831183136 85 214 4.0 8.0 0.00 0.02 0.00 64 1010.6
20260831181650 84 265 1.0 7.0 0.00 0.02 0.00 63 1010.7
20260831180020 85 211 2.0 8.0 0.00 0.02 0.00 64 1010.9
20260831174546 85 202 3.0 7.0 0.00 0.02 0.00 63 1011.0
20260831173106 85 234 2.0 7.0 0.00 0.02 0.00 64 1011.0
20260831171637 84 234 2.0 12.0 0.00 0.02 0.00 65 1011.1
20260831170010 85 246 4.0 11.0 0.00 0.02 0.00 64 1011.3
20260831164613 84 194 2.0 7.0 0.00 0.02 0.00 68 1011.3
20260831163136 83 243 2.0 7.0 0.00 0.02 0.00 70 1011.3
20260831161505 83 225 2.0 7.0 0.00 0.02 0.00 73 1011.2
20260831160015 83 176 3.0 8.0 0.00 0.02 0.00 71 1011.2
20260831154606 83 242 5.0 7.0 0.00 0.02 0.00 72 1011.2
20260831153022 82 211 5.0 7.0 0.00 0.02 0.00 73 1011.2
20260831151604 80 223 2.0 4.0 0.00 0.02 0.00 76 1011.3
20260831150022 79 180 1.0 5.0 0.00 0.02 0.00 77 1011.3
20260831144555 79 215 2.0 5.0 0.00 0.02 0.00 77 1011.2
20260831143026 78 176 1.0 4.0 0.00 0.02 0.00 80 1011.2
20260831141615 77 173 1.0 5.0 0.00 0.02 0.00 83 1011.2
20260831140149 77 193 2.0 5.0 0.00 0.02 0.00 82 1011.2
20260831134507 76 207 2.0 4.0 0.00 0.02 0.00 85 1011.2
20260831133050 75 199 2.0 4.0 0.00 0.02 0.00 85 1011.2
20260831131525 74 136 0.0 2.0 0.00 0.02 0.00 87 1011.2
20260831130118 73 175 0.0 2.0 0.00 0.02 0.00 88 1011.3
20260831124646 72 167 0.0 2.0 0.00 0.02 0.00 89 1011.3
20260831123013 71 159 0.0 3.0 0.00 0.02 0.00 90 1011.2
20260831121606 71 169 0.0 2.0 0.00 0.02 0.00 90 1011.2
20260831120027 71 228 0.0 2.0 0.00 0.02 0.00 90 1011.3
20260831114617 71 139 0.0 2.0 0.00 0.02 0.00 91 1011.1
20260831113054 70 139 0.0 2.0 0.00 0.02 0.00 91 1011.1
20260831111529 71 167 0.0 3.0 0.00 0.02 0.00 89 1011.1
20260831110005 70 147 1.0 2.0 0.00 0.02 0.00 91 1010.9
20260831104605 69 154 1.0 3.0 0.00 0.02 0.00 92 1010.9
20260831103140 69 133 0.0 2.0 0.00 0.02 0.00 92 1010.6
20260831101653 69 133 0.0 2.0 0.00 0.02 0.00 92 1010.4
20260831100008 68 133 0.0 1.0 0.00 0.02 0.00 93 1010.3
20260831094607 68 133 0.0 2.0 0.00 0.02 0.00 92 1010.5
20260831093145 68 133 0.0 2.0 0.00 0.02 0.00 92 1010.4
20260831091517 69 133 0.0 2.0 0.00 0.02 0.00 92 1010.4
20260831090057 69 159 1.0 2.0 0.00 0.02 0.00 92 1010.4
20260831084636 69 159 0.0 2.0 0.00 0.02 0.00 92 1010.5
20260831083033 69 159 0.0 2.0 0.00 0.02 0.00 91 1010.5
20260831081545 68 159 0.0 2.0 0.00 0.02 0.00 91 1010.4
20260831080105 69 182 0.0 2.0 0.00 0.02 0.00 91 1010.5
20260831074506 69 182 0.0 1.0 0.00 0.02 0.00 90 1010.7
20260831073039 69 114 0.0 1.0 0.00 0.02 0.00 90 1010.7
20260831071606 69 114 0.0 2.0 0.00 0.02 0.00 90 1010.8
20260831070142 69 114 0.0 2.0 0.00 0.02 0.00 90 1010.8
20260831064511 69 125 0.0 2.0 0.00 0.02 0.00 90 1010.8
20260831063045 69 153 0.0 1.0 0.00 0.02 0.00 89 1010.8
20260831061519 69 152 0.0 2.0 0.00 0.02 0.00 90 1011.1
20260831060112 69 150 0.0 2.0 0.00 0.02 0.00 89 1011.1
20260831054536 69 152 0.0 3.0 0.00 0.02 0.00 88 1011.3
20260831053105 69 155 0.0 3.0 0.00 0.02 0.00 88 1011.4
20260831051641 69 163 1.0 5.0 0.00 0.02 0.00 89 1011.3
20260831050138 69 162 1.0 3.0 0.00 0.02 0.00 91 1011.2
20260831044652 68 166 1.0 3.0 0.00 0.02 0.00 91 1011.2
20260831043155 69 157 1.0 3.0 0.00 0.02 0.00 91 1011.3
20260831041545 69 147 1.0 2.0 0.00 0.02 0.00 90 1011.5
20260831040051 69 144 1.0 3.0 0.00 0.02 0.00 90 1011.7
20260831034533 70 148 1.0 3.0 0.00 0.02 0.02 89 1011.5
20260831033100 70 129 1.0 4.0 0.00 0.02 0.02 89 1011.5
20260831031642 70 154 2.0 4.0 0.00 0.02 0.02 90 1011.6
20260831030017 69 140 3.0 7.0 0.01 0.02 0.02 92 1011.5
20260831024559 69 136 0.0 3.0 0.01 0.02 0.02 92 1012.0
20260831023124 69 121 1.0 2.0 0.01 0.02 0.02 93 1012.1